Vorticity
19 18 17 17 20 23 24 23 22 20 19 16 12 9 8 6 3 3 6 7 6 6 8 9 9 8 8 9 12 14 13 12 11 9 7 6 6 7 11 20 22 12 5 9 15 17 16 11 8 12 13 9 11 9 2 1 5 4 4 8 8 4 3 4 4 3 2 4 6 6 7 9 8 8 7 6 6 5 5 6 7 8 9 8 9
15 13 12 14 17 21 25 27 27 25 22 22 20 14 10 9 6 3 4 5 6 6 8 9 10 9 8 8 9 12 12 13 13 12 10 8 6 6 9 16 20 14 7 10 14 13 16 16 8 9 14 11 11 11 4 0 3 2 0 5 9 7 3 2 3 3 2 2 4 6 6 5 6 7 8 7 5 5 5 5 5 6 7 6 6
11 10 9 11 16 20 23 28 30 28 23 23 25 22 16 13 10 7 4 3 5 5 7 10 11 11 10 9 9 9 9 9 9 10 11 11 9 7 6 10 17 16 9 10 13 9 13 21 16 11 16 16 13 12 8 3 3 4 0 -1 4 7 6 4 2 2 3 3 2 5 8 6 3 3 5 5 5 5 6 7 6 5 6 8 9
10 11 7 6 8 12 17 24 29 30 25 21 23 26 24 18 15 11 7 5 5 4 4 7 11 13 13 12 11 9 8 7 7 8 10 11 11 9 6 5 11 18 14 10 12 8 5 15 21 16 14 18 18 14 10 7 6 5 1 -1 2 6 7 7 7 3 1 3 2 2 6 8 6 3 3 3 3 4 6 7 6 5 5 6 7
13 12 7 5 6 6 8 14 22 28 30 25 21 24 26 24 20 16 12 9 7 6 4 3 6 11 14 14 14 12 10 9 8 9 11 12 12 12 10 5 4 12 17 16 18 14 3 3 12 17 16 14 15 17 13 8 8 6 2 1 4 7 7 6 8 7 4 4 4 1 4 8 8 5 4 4 3 3 5 6 9 11 8 6 6
14 13 9 7 7 6 7 8 12 20 28 30 27 25 25 25 23 19 17 14 11 9 7 3 2 5 10 13 14 14 13 11 11 11 12 13 14 14 13 10 6 6 10 14 19 21 15 3 -3 10 25 19 8 11 16 11 9 9 6 3 0 5 9 6 5 8 8 7 7 3 3 7 8 5 3 4 5 5 5 6 7 6 1 1 6
10 10 8 8 8 6 7 8 8 12 19 25 28 28 26 23 22 20 19 17 16 13 10 8 3 0 4 10 13 14 13 12 11 11 10 11 12 14 15 14 12 8 6 9 14 20 25 18 3 3 25 32 15 7 12 14 13 11 8 5 1 4 10 9 6 10 10 8 9 9 6 5 6 6 3 2 4 5 5 6 6 2 -2 -2 4
6 8 8 10 11 11 10 9 8 10 13 17 20 23 23 21 19 19 19 18 19 17 13 11 8 2 -0 3 9 12 12 11 10 9 9 9 7 9 12 13 14 12 7 6 11 17 23 28 21 6 10 30 34 19 9 8 11 14 13 10 4 0 5 7 6 8 10 7 7 8 8 7 5 4 5 4 4 5 4 4 5 4 4 5 6
5 8 9 10 13 14 15 14 11 10 12 15 16 16 16 17 16 17 18 19 19 20 17 12 10 8 3 0 3 8 10 10 10 9 8 9 8 7 9 10 12 13 10 6 7 15 20 25 28 12 -5 7 30 33 20 10 7 13 17 16 6 -4 -1 6 5 5 6 6 8 9 8 9 6 2 3 4 5 8 7 4 3 4 6 7 7
5 7 9 10 10 11 14 18 18 14 12 13 15 16 15 14 14 14 16 18 19 21 20 16 11 9 7 5 2 3 7 9 9 9 8 8 8 7 7 8 10 11 11 7 4 10 19 23 27 21 3 -5 7 19 25 23 14 10 14 19 15 6 3 4 4 7 8 3 6 15 13 5 1 -1 0 2 3 6 9 8 5 5 6 5 5
5 6 8 8 7 7 9 12 17 20 18 13 12 15 17 14 13 13 14 15 17 19 20 19 15 10 8 8 6 3 4 6 7 8 8 8 8 8 7 7 9 11 10 9 6 6 15 22 23 22 19 11 3 -1 8 23 24 14 10 13 14 10 5 1 2 11 16 5 -3 6 13 7 -1 -2 -1 1 2 3 7 9 9 8 8 6 4
4 5 7 6 5 7 9 10 11 17 23 21 13 11 14 15 14 13 12 12 13 16 19 20 18 14 9 7 7 6 5 5 5 5 6 8 7 7 8 7 7 11 10 9 8 5 12 24 24 21 23 23 18 8 3 13 25 25 17 12 14 12 5 0 -0 2 9 10 -1 -4 3 6 3 -1 -2 2 6 5 5 7 9 9 8 6 6
5 5 6 7 6 8 12 12 11 13 20 26 23 14 10 12 14 14 13 12 12 12 14 17 19 18 15 10 8 7 7 6 6 5 5 6 6 6 8 7 6 8 10 10 9 4 11 23 22 15 16 13 12 15 10 4 12 25 27 17 15 17 14 9 2 -7 -7 -1 -3 -7 -1 8 14 11 6 8 9 6 7 10 11 10 6 4 4
7 7 8 9 11 13 15 12 11 13 16 22 27 24 16 10 10 12 12 13 13 13 13 13 15 16 16 15 12 9 8 7 6 6 5 5 5 5 6 7 6 7 9 11 10 5 11 23 17 7 12 13 6 11 16 9 6 16 28 26 17 13 14 14 8 5 6 4 -1 1 3 4 9 13 13 13 12 10 9 7 6 10 9 8 7
10 10 11 12 13 15 15 11 10 13 15 16 23 29 27 18 11 9 9 10 11 12 13 13 13 14 14 15 15 12 11 9 7 7 7 5 5 5 6 6 6 7 8 10 12 7 8 20 19 3 1 12 15 14 15 14 10 8 14 26 27 16 11 12 10 12 18 16 11 11 3 -9 -7 2 6 8 11 12 3 -10 -8 4 7 6 11
12 11 12 12 13 15 14 10 9 12 13 13 17 25 30 28 21 14 10 10 9 9 10 11 11 13 13 14 15 15 15 14 12 10 9 8 7 6 6 7 6 7 8 9 12 9 5 13 21 11 -2 -1 7 14 17 15 15 14 12 19 27 22 12 10 10 11 13 13 15 18 13 6 5 5 1 1 8 11 1 -13 -12 -2 -0 1 10
11 10 11 12 15 19 16 8 7 12 13 11 11 17 24 29 30 26 18 14 13 10 10 10 9 10 11 11 12 13 14 15 15 14 13 11 10 9 8 8 6 7 9 10 11 12 7 7 15 20 15 4 -4 2 14 18 18 20 21 22 27 30 25 18 13 11 9 6 7 10 10 10 8 5 2 3 6 9 7 1 -1 -0 -0 1 6
8 8 10 12 16 21 18 8 4 9 13 12 10 12 16 20 25 29 27 22 19 16 14 14 13 12 11 10 10 11 11 12 13 14 14 13 12 12 11 10 8 7 9 13 14 13 10 7 8 14 22 22 10 -1 1 12 17 14 10 10 11 15 19 18 16 16 14 8 4 5 5 7 9 11 14 15 13 13 14 11 8 6 5 6 11
7 7 9 12 16 21 19 9 3 6 11 13 12 11 14 15 15 19 24 24 22 20 17 17 17 16 14 14 13 12 12 12 12 11 12 13 12 11 11 10 10 9 9 13 16 15 10 7 7 9 14 22 25 14 -2 -3 9 12 4 -1 -0 1 5 9 10 13 16 13 11 11 13 12 12 13 15 16 17 18 16 13 13 13 13 16 18
7 7 9 10 13 20 21 12 4 5 8 12 14 13 14 16 15 13 15 17 17 17 17 17 17 17 16 15 16 16 16 16 16 14 13 13 12 11 12 11 11 11 11 13 16 16 11 7 6 8 11 14 23 26 13 -2 -1 8 8 3 3 7 13 16 16 15 16 15 13 13 12 8 7 6 7 10 13 14 13 15 18 21 23 24 20
7 7 8 10 11 17 22 15 6 4 6 10 13 14 14 16 17 15 13 12 12 12 12 13 13 13 15 15 15 17 18 18 19 19 17 16 15 14 14 13 13 13 13 15 16 14 10 8 7 8 11 13 17 24 25 13 2 5 11 7 2 1 4 9 14 18 20 20 18 16 11 7 9 10 7 9 14 15 14 12 10 10 13 16 15
7 6 7 9 10 14 21 19 9 4 5 7 10 13 15 16 16 15 15 15 13 11 10 12 13 13 15 16 16 17 19 19 19 19 18 17 17 16 15 14 14 15 15 17 18 14 7 6 9 11 12 14 16 20 26 24 14 9 13 14 10 3 -2 -2 1 5 11 15 18 20 18 15 18 19 12 8 9 9 5 -1 -6 -7 -2 3 5
7 7 6 7 9 13 19 21 15 8 5 6 8 10 12 15 16 15 14 14 15 14 11 11 12 12 14 16 18 19 20 21 21 21 20 19 18 17 16 16 16 18 20 20 16 11 6 6 8 11 12 14 17 18 21 25 24 18 16 17 16 13 9 6 3 2 4 7 9 14 16 15 16 18 15 12 12 11 7 2 -2 -2 2 5 6
7 7 6 5 7 11 15 19 19 14 7 5 7 8 9 12 15 17 15 12 11 11 10 8 7 8 9 13 16 18 19 21 22 22 22 22 21 20 19 19 19 20 21 18 11 5 5 8 8 9 11 13 16 19 20 22 25 24 22 21 20 19 16 13 11 8 7 7 8 11 14 16 17 18 19 17 16 16 16 16 15 14 15 15 14
7 8 7 4 4 8 12 16 18 18 14 8 6 7 8 8 10 14 17 17 14 10 8 7 7 7 8 10 12 15 17 19 21 22 23 23 23 21 19 18 18 17 14 9 7 6 8 9 9 10 11 12 14 18 20 21 22 23 23 23 22 23 21 17 14 12 10 9 9 8 9 12 15 20 24 26 26 24 22 21 20 19 17 17 16
6 8 8 5 4 5 9 12 14 17 18 15 10 7 7 8 9 9 12 16 18 17 15 13 11 10 10 10 11 13 15 15 17 19 20 21 20 19 18 17 15 15 13 11 11 12 11 11 10 10 11 12 12 14 16 17 17 17 18 19 20 22 23 22 19 17 15 14 13 12 11 10 10 12 16 21 26 30 30 30 29 28 27 26 25
6 7 7 6 4 3 5 10 12 13 16 19 17 12 8 7 8 9 9 10 12 15 18 19 18 16 14 12 11 12 14 15 15 15 17 18 19 18 17 17 16 15 15 15 14 13 12 12 11 10 10 10 11 11 11 13 13 13 14 15 16 18 21 24 24 23 22 21 20 19 19 19 18 17 16 15 17 19 21 22 24 26 28 29 30
7 6 7 7 5 3 4 7 10 11 12 15 17 17 13 9 7 8 9 9 8 9 10 12 16 18 18 17 14 12 13 13 13 13 13 15 16 17 17 17 17 16 15 14 14 14 13 13 13 12 12 11 11 11 11 11 12 13 14 14 15 16 17 19 21 23 23 23 23 22 21 20 20 20 19 17 17 16 16 16 16 16 18 19 19
8 7 7 7 6 4 3 5 7 8 10 11 13 15 16 14 12 9 8 8 8 8 7 6 8 10 13 15 16 15 15 15 14 13 12 12 12 13 13 14 14 14 14 13 13 13 13 13 13 13 13 13 13 12 13 12 12 12 13 13 13 13 13 13 13 13 14 15 16 16 17 17 16 16 16 16 16 15 16 16 16 15 14 13 13
10 8 6 8 8 5 3 4 5 6 7 9 10 11 13 15 15 14 12 11 9 8 8 8 7 7 7 8 10 11 12 13 14 14 14 13 13 12 12 12 11 11 11 11 10 10 10 10 11 10 10 10 11 11 11 11 11 10 10 11 10 10 11 11 11 11 11 12 12 13 13 13 13 13 13 12 12 11 10 10 10 10 10 10 9
12 10 7 7 9 7 4 3 4 5 5 7 8 9 10 12 13 15 15 15 13 12 11 10 10 10 9 7 7 8 8 8 9 10 10 10 11 12 12 12 11 11 11 11 10 11 10 10 9 10 9 9 10 10 10 10 10 10 10 10 9 9 9 9 9 9 9 9 9 9 10 10 9 9 9 9 9 9 9 9 9 9 9 9 8
12 11 8 7 9 9 7 5 4 4 4 5 6 7 8 9 10 11 12 13 13 13 13 13 12 12 11 10 10 9 9 9 8 8 8 9 9 9 9 9 9 9 9 9 8 8 8 8 8 8 8 8 8 8 8 8 7 7 8 8 7 7 8 8 8 8 8 8 8 8 8 8 8 8 8 8 8 8 8 8 8 8 7 7 7
12 12 10 8 8 9 8 7 6 4 4 4 5 6 7 7 7 8 9 9 10 11 12 12 12 13 14 14 15 14 13 12 11 10 10 10 10 9 9 10 10 9 9 9 9 9 9 9 9 9 8 8 8 8 8 8 8 9 9 9 9 9 9 9 8 8 8 8 8 8 8 8 8 8 8 8 8 8 9 9 9 9 9 9 9
12 12 11 9 8 9 9 8 7 6 4 4 4 5 6 6 6 7 7 7 7 8 9 9 10 11 12 13 14 15 15 15 15 15 14 13 13 12 11 10 10 10 10 9 9 9 9 9 10 10 10 10 10 10 10 10 10 10 10 10 9 9 9 8 8 8 8 8 8 8 8 8 8 9 9 9 9 9 9 9 9 8 8 8 8
11 12 12 10 9 9 9 9 9 8 6 5 4 4 5 5 6 6 6 6 6 6 6 6 8 8 9 9 9 9 10 10 10 11 12 13 14 14 14 14 13 13 13 12 12 12 12 12 12 11 11 11 11 11 10 10 9 8 8 7 6 6 6 6 6 6 7 7 7 8 8 7 8 8 7 7 7 7 7 7 7 7 7 7 7
11 12 12 11 9 9 9 9 9 9 7 6 5 5 4 4 5 6 5 5 6 5 4 5 6 6 6 7 8 8 7 7 7 7 7 8 9 9 10 11 11 11 11 11 11 11 11 11 10 10 9 9 8 7 7 6 6 5 5 5 5 5 5 5 6 6 6 6 6 6 7 7 7 7 7 7 7 6 6 6 6 6 6 6 7
11 11 11 11 10 9 9 9 9 9 9 8 7 6 5 5 4 5 6 5 5 5 4 5 5 5 5 5 5 5 5 5 6 7 7 6 6 7 8 8 8 8 8 8 8 7 7 7 7 7 7 6 6 6 6 6 5 6 6 6 6 6 6 6 6 6 6 6 6 6 5 5 5 5 5 5 5 5 5 5 5 6 6 6 6
12 10 10 10 10 10 9 8 9 9 9 9 8 7 7 6 5 5 6 5 5 5 5 5 5 5 5 5 4 4 4 5 5 5 5 5 5 6 6 7 7 7 8 8 8 7 7 7 7 7 7 7 7 7 7 6 6 6 6 6 6 6 7 6 6 6 6 6 6 6 6 6 6 6 5 5 5 5 5 5 5 5 6 6 6
16 12 10 10 10 10 10 9 9 9 9 9 9 8 8 7 7 6 6 6 5 5 5 5 6 5 4 4 5 5 5 6 6 5 4 4 5 5 6 6 6 6 7 7 7 6 6 7 7 6 6 6 6 6 5 6 6 5 6 6 7 7 7 7 7 7 7 6 5 5 4 3 3 3 4 4 5 5 5 5 6 6 6 6 6
19 15 11 10 10 10 11 10 10 9 9 9 9 9 9 8 7 8 7 6 6 6 5 5 5 5 5 5 5 6 7 7 7 7 6 6 5 5 5 5 6 6 6 6 6 6 6 6 6 6 6 5 5 5 5 5 6 6 6 7 7 7 7 7 6 5 4 4 3 3 3 4 4 5 6 6 6 7 7 7 7 6 6 6 5
20 18 13 11 11 11 12 12 11 10 9 9 9 9 9 8 8 8 8 7 6 5 5 5 4 5 5 5 5 6 7 7 7 8 7 7 7 8 7 7 7 7 7 7 7 7 7 6 6 6 6 6 6 6 7 7 8 8 7 7 6 6 5 4 4 4 4 5 5 6 6 7 7 7 8 8 8 8 8 8 7 7 7 6 6
16 21 18 14 12 12 12 12 12 11 10 9 9 9 10 9 9 8 7 7 6 5 5 5 5 5 5 5 6 5 5 6 7 7 7 8 9 9 10 9 9 8 7 7 7 7 7 8 8 8 8 8 8 8 9 8 8 7 6 6 5 5 5 6 6 7 7 7 8 9 9 9 9 9 9 9 9 9 9 10 10 9 9 9 9
9 16 20 18 16 14 13 13 13 13 11 9 9 10 10 10 10 9 8 7 6 6 5 5 5 5 5 4 5 5 5 6 7 8 10 11 12 12 12 11 11 11 10 9 9 9 9 9 10 10 9 9 9 8 7 7 6 6 6 6 6 6 6 7 7 8 8 9 10 10 9 9 9 9 10 10 10 11 11 11 11 12 12 12 12
8 12 17 19 19 18 16 15 15 14 13 11 10 10 10 11 11 10 9 8 7 6 6 6 6 6 6 5 5 5 5 7 9 12 13 14 14 13 13 13 13 13 13 12 11 11 10 9 9 8 8 7 7 7 6 6 6 6 5 5 6 6 7 8 8 9 9 10 9 9 9 9 9 10 10 11 11 11 10 10 10 11 11 12 12
10 9 12 16 19 18 18 17 17 16 15 13 11 10 9 10 11 12 11 10 9 8 8 8 8 7 6 6 6 6 8 11 14 15 14 13 11 10 10 10 9 9 9 10 9 8 8 8 8 8 7 7 7 7 6 5 5 5 5 5 5 5 5 5 5 5 6 6 6 7 7 8 9 10 11 11 11 11 11 11 11 11 11 11 11
8 7 11 16 16 14 14 16 17 18 17 15 14 12 10 10 11 13 13 13 13 12 12 11 10 9 8 7 7 9 12 14 14 12 10 9 9 9 8 9 10 10 10 10 10 10 10 9 9 8 8 7 6 5 5 4 4 4 4 4 4 4 4 4 4 4 4 4 4 5 6 8 10 11 11 11 12 12 11 11 12 13 14 14 14
10 6 8 12 12 11 11 13 15 17 18 17 16 14 13 11 11 13 14 14 14 13 12 10 9 7 7 7 9 12 14 13 10 8 7 6 7 8 9 9 10 11 11 10 10 10 9 9 8 8 7 6 5 4 3 3 4 4 4 4 5 5 5 5 5 5 4 4 5 5 5 6 7 8 9 11 11 9 7 8 11 14 16 17 17
15 8 4 6 8 9 11 12 13 14 16 17 17 17 16 14 13 13 14 14 14 12 11 10 9 9 9 11 13 14 12 8 5 3 3 4 4 4 4 5 5 6 6 7 7 7 7 7 7 7 6 5 5 5 4 4 3 3 3 4 5 6 7 8 8 6 5 5 6 5 4 5 6 9 11 11 8 5 4 8 12 15 15 15 14
17 11 5 5 7 7 8 10 13 15 16 17 18 18 17 15 14 13 13 13 13 13 12 10 10 10 10 12 12 10 7 4 2 1 1 1 2 2 3 3 3 3 3 3 4 5 6 6 6 7 7 7 7 6 6 5 4 3 4 5 7 9 10 10 7 5 4 4 4 3 4 7 10 12 12 11 8 7 9 12 13 13 13 12 11
11 7 3 2 2 2 4 8 13 16 19 19 19 19 18 16 14 13 13 12 12 12 12 11 11 11 10 9 8 7 4 2 1 1 1 1 2 3 3 3 3 2 2 2 3 3 3 4 5 6 6 6 6 6 5 4 3 3 3 4 5 5 5 5 4 3 3 3 4 6 9 12 13 13 13 12 11 12 13 13 11 10 10 9 7
5 3 2 1 -3 -5 -1 6 10 11 12 15 17 18 18 17 15 12 12 12 11 11 11 10 9 9 8 6 5 5 5 4 4 4 4 5 5 5 4 5 5 5 4 3 3 3 3 4 5 6 7 8 9 9 9 8 8 6 5 4 3 1 2 5 8 7 7 7 9 11 13 14 14 13 13 13 12 12 11 10 8 7 6 4 3
Height
5730 5729 5727 5726 5725 5724 5722 5722 5721 5721 5720 5721 5722 5723 5724 5725 5726 5728 5729 5730 5731 5732 5733 5734 5735 5736 5737 5738 5740 5741 5742 5743 5744 5746 5747 5749 5750 5751 5752 5753 5755 5757 5760 5762 5764 5767 5769 5771 5773 5775 5776 5778 5781 5785 5787 5789 5792 5794 5797 5799 5801 5803 5805 5807 5808 5809 5810 5812 5814 5815 5817 5818 5819 5819 5821 5822 5823 5824 5824 5825 5827 5828 5829 5830 5831
5727 5726 5724 5723 5722 5720 5718 5717 5716 5715 5715 5715 5716 5717 5719 5720 5722 5724 5725 5726 5727 5729 5730 5731 5731 5732 5733 5735 5736 5737 5738 5740 5741 5742 5744 5746 5747 5749 5750 5751 5751 5753 5755 5758 5759 5762 5764 5766 5768 5770 5772 5774 5777 5781 5783 5785 5787 5790 5793 5795 5798 5799 5801 5803 5805 5806 5807 5809 5810 5812 5813 5815 5816 5817 5818 5820 5821 5821 5822 5823 5824 5825 5826 5827 5828
5724 5723 5722 5721 5719 5717 5715 5713 5711 5710 5710 5710 5711 5712 5714 5715 5717 5719 5721 5722 5724 5725 5726 5728 5728 5729 5730 5731 5733 5734 5735 5737 5738 5739 5740 5742 5744 5745 5746 5747 5748 5749 5751 5753 5755 5757 5760 5762 5764 5765 5768 5770 5773 5776 5779 5781 5784 5787 5789 5792 5794 5796 5798 5800 5801 5803 5804 5805 5807 5808 5810 5811 5813 5814 5816 5817 5818 5819 5819 5821 5822 5823 5823 5824 5825
5722 5721 5720 5718 5717 5715 5712 5710 5708 5707 5706 5706 5706 5707 5709 5710 5712 5714 5716 5718 5720 5721 5723 5724 5725 5726 5727 5728 5730 5731 5732 5733 5735 5736 5737 5738 5740 5742 5743 5744 5745 5747 5748 5749 5751 5753 5755 5758 5760 5761 5763 5765 5768 5771 5774 5776 5779 5782 5785 5787 5789 5791 5793 5795 5797 5799 5800 5801 5803 5805 5806 5808 5809 5811 5812 5814 5815 5816 5817 5818 5819 5820 5821 5822 5823
5720 5719 5718 5716 5714 5712 5710 5708 5706 5704 5703 5702 5703 5703 5704 5706 5708 5710 5712 5714 5716 5718 5720 5721 5722 5723 5724 5725 5726 5728 5729 5730 5732 5733 5734 5735 5737 5738 5740 5741 5743 5744 5745 5746 5748 5749 5751 5753 5755 5757 5759 5761 5763 5766 5768 5772 5775 5777 5780 5782 5784 5786 5789 5791 5793 5795 5796 5797 5799 5801 5803 5804 5806 5807 5809 5810 5812 5814 5815 5816 5817 5817 5818 5819 5820
5718 5717 5716 5714 5712 5710 5708 5706 5705 5703 5701 5700 5700 5700 5701 5702 5704 5705 5707 5709 5711 5714 5716 5718 5719 5720 5721 5722 5723 5725 5726 5727 5729 5730 5731 5732 5734 5735 5737 5738 5740 5741 5742 5743 5744 5745 5747 5749 5750 5752 5754 5757 5759 5761 5764 5767 5770 5773 5776 5778 5781 5783 5786 5788 5789 5791 5792 5792 5794 5796 5799 5801 5802 5804 5805 5807 5808 5810 5811 5813 5814 5814 5815 5816 5817
5717 5715 5714 5712 5710 5708 5707 5705 5703 5701 5700 5698 5697 5697 5698 5699 5700 5702 5704 5705 5707 5709 5712 5714 5716 5717 5718 5719 5720 5722 5723 5724 5725 5727 5728 5729 5730 5732 5734 5735 5737 5738 5739 5740 5740 5741 5743 5745 5746 5748 5750 5752 5754 5757 5760 5763 5765 5768 5771 5774 5777 5780 5782 5784 5785 5787 5788 5789 5790 5792 5795 5797 5799 5800 5801 5803 5804 5806 5807 5809 5810 5811 5812 5812 5813
5715 5714 5712 5710 5709 5707 5705 5703 5701 5700 5698 5697 5696 5696 5696 5696 5698 5699 5700 5702 5704 5706 5708 5710 5712 5714 5715 5716 5718 5719 5720 5721 5723 5724 5725 5726 5727 5729 5731 5732 5733 5735 5736 5737 5738 5738 5739 5741 5743 5745 5746 5748 5750 5752 5755 5758 5761 5764 5767 5770 5773 5775 5777 5779 5781 5783 5784 5785 5786 5787 5790 5792 5794 5795 5797 5799 5800 5802 5803 5804 5805 5807 5808 5808 5809
5714 5712 5711 5709 5707 5705 5703 5702 5700 5698 5697 5696 5695 5694 5694 5695 5695 5697 5698 5699 5701 5702 5704 5706 5709 5711 5712 5714 5715 5716 5717 5718 5720 5721 5722 5723 5724 5726 5727 5729 5730 5732 5733 5734 5735 5735 5735 5737 5739 5741 5743 5744 5746 5748 5750 5753 5756 5759 5762 5765 5768 5770 5772 5774 5776 5778 5780 5782 5783 5783 5785 5787 5789 5791 5793 5794 5796 5797 5799 5800 5800 5801 5803 5804 5804
5712 5711 5709 5707 5706 5704 5702 5700 5698 5697 5695 5694 5693 5693 5693 5693 5694 5695 5696 5697 5698 5699 5701 5703 5705 5707 5709 5711 5712 5713 5714 5715 5717 5718 5719 5720 5721 5723 5724 5725 5727 5728 5729 5731 5731 5732 5732 5732 5734 5736 5738 5740 5742 5744 5746 5749 5751 5754 5757 5759 5762 5765 5768 5770 5772 5773 5775 5777 5779 5779 5780 5782 5784 5786 5788 5789 5791 5792 5794 5795 5796 5797 5798 5798 5799
5711 5709 5708 5706 5704 5702 5700 5699 5697 5695 5693 5692 5692 5691 5691 5691 5692 5692 5693 5694 5695 5697 5698 5700 5701 5704 5706 5707 5709 5710 5711 5712 5714 5715 5716 5717 5718 5720 5721 5722 5723 5724 5725 5727 5728 5728 5728 5729 5730 5732 5734 5737 5739 5741 5743 5745 5747 5749 5752 5754 5756 5759 5763 5765 5767 5768 5769 5772 5774 5774 5776 5777 5779 5780 5782 5784 5786 5787 5789 5790 5791 5792 5793 5794 5795
5709 5708 5706 5704 5702 5700 5699 5697 5695 5693 5692 5690 5690 5689 5689 5689 5690 5690 5691 5692 5693 5694 5695 5697 5698 5700 5702 5704 5706 5707 5708 5710 5711 5712 5713 5715 5716 5717 5718 5719 5720 5721 5722 5723 5724 5725 5725 5726 5727 5728 5730 5733 5735 5737 5739 5741 5743 5745 5747 5749 5752 5754 5757 5760 5762 5763 5764 5766 5768 5769 5771 5773 5774 5776 5777 5779 5780 5782 5784 5785 5786 5787 5788 5789 5790
5708 5706 5704 5702 5700 5699 5697 5695 5693 5692 5690 5689 5688 5687 5687 5687 5688 5688 5689 5690 5691 5692 5693 5694 5695 5697 5699 5700 5702 5704 5705 5706 5708 5709 5711 5712 5713 5714 5715 5716 5717 5718 5719 5720 5721 5721 5722 5723 5724 5726 5728 5730 5731 5733 5735 5737 5739 5741 5743 5745 5748 5750 5752 5755 5757 5758 5760 5762 5763 5764 5766 5768 5769 5770 5772 5773 5775 5777 5779 5780 5781 5782 5783 5784 5785
5706 5704 5703 5701 5699 5697 5695 5693 5691 5690 5688 5687 5686 5685 5685 5685 5686 5686 5687 5688 5689 5689 5690 5691 5693 5694 5696 5697 5699 5700 5702 5703 5705 5706 5707 5709 5710 5711 5712 5713 5713 5715 5716 5717 5717 5718 5719 5720 5722 5723 5725 5726 5727 5729 5731 5733 5735 5737 5739 5741 5743 5745 5747 5750 5751 5753 5755 5756 5758 5759 5761 5763 5764 5765 5767 5768 5770 5772 5774 5775 5776 5777 5778 5779 5779
5704 5703 5701 5699 5697 5695 5693 5692 5690 5688 5687 5685 5684 5683 5683 5683 5684 5684 5685 5686 5686 5687 5688 5689 5690 5692 5693 5694 5696 5697 5698 5700 5701 5702 5704 5705 5706 5708 5709 5710 5710 5711 5712 5713 5714 5715 5716 5718 5719 5720 5722 5723 5724 5725 5727 5729 5731 5732 5734 5736 5738 5740 5743 5745 5746 5748 5749 5751 5753 5754 5756 5757 5758 5760 5762 5763 5765 5767 5769 5770 5771 5772 5772 5773 5773
5703 5701 5700 5698 5696 5694 5692 5691 5689 5687 5686 5684 5683 5682 5682 5681 5681 5682 5682 5683 5684 5685 5686 5687 5688 5689 5690 5692 5693 5694 5695 5696 5698 5699 5700 5701 5703 5704 5705 5706 5707 5708 5709 5710 5711 5712 5713 5715 5716 5717 5718 5720 5721 5722 5724 5725 5727 5729 5730 5732 5734 5736 5738 5740 5742 5743 5744 5746 5748 5749 5750 5752 5753 5755 5757 5759 5760 5762 5763 5764 5765 5766 5766 5767 5767
5702 5700 5698 5696 5694 5692 5691 5690 5688 5686 5685 5684 5683 5682 5681 5680 5680 5680 5680 5681 5682 5683 5684 5685 5686 5687 5688 5689 5690 5691 5692 5693 5694 5695 5697 5698 5699 5700 5702 5703 5704 5704 5705 5706 5708 5709 5710 5711 5713 5714 5715 5716 5718 5719 5721 5722 5724 5725 5727 5729 5730 5732 5733 5735 5737 5738 5739 5741 5742 5744 5745 5746 5748 5750 5751 5753 5754 5756 5757 5758 5758 5759 5760 5760 5761
5700 5699 5697 5695 5693 5691 5690 5689 5687 5686 5685 5683 5682 5681 5680 5679 5679 5679 5679 5679 5680 5681 5682 5683 5684 5684 5685 5686 5687 5688 5689 5690 5691 5692 5693 5694 5695 5697 5698 5699 5700 5701 5702 5703 5704 5705 5707 5708 5709 5710 5711 5712 5714 5715 5717 5719 5720 5722 5724 5725 5726 5727 5728 5730 5732 5733 5734 5735 5737 5738 5740 5741 5743 5744 5746 5747 5748 5749 5750 5751 5752 5753 5753 5754 5754
5699 5697 5696 5694 5692 5690 5689 5688 5687 5686 5684 5683 5682 5681 5680 5679 5679 5678 5678 5678 5679 5679 5680 5681 5681 5682 5683 5683 5684 5684 5685 5686 5687 5689 5690 5691 5692 5693 5694 5695 5696 5698 5699 5700 5701 5702 5703 5705 5706 5707 5708 5709 5710 5711 5713 5715 5717 5718 5720 5721 5722 5723 5724 5725 5726 5727 5728 5730 5732 5733 5735 5736 5738 5739 5740 5741 5742 5743 5744 5745 5746 5746 5747 5747 5748
5698 5696 5695 5693 5691 5689 5688 5687 5686 5685 5684 5683 5682 5681 5680 5679 5678 5678 5678 5678 5678 5678 5679 5679 5680 5680 5680 5681 5681 5681 5682 5683 5684 5685 5686 5687 5688 5689 5690 5691 5693 5694 5695 5696 5698 5699 5700 5702 5703 5704 5705 5705 5706 5708 5709 5710 5712 5714 5716 5717 5718 5719 5720 5721 5722 5722 5723 5725 5727 5728 5730 5731 5732 5733 5734 5735 5736 5737 5738 5739 5740 5740 5741 5741 5742
5697 5695 5694 5692 5690 5688 5687 5686 5686 5685 5684 5683 5682 5681 5680 5679 5678 5678 5678 5678 5678 5677 5678 5678 5678 5678 5679 5679 5679 5679 5679 5680 5680 5681 5682 5684 5684 5685 5687 5688 5689 5690 5692 5693 5694 5696 5697 5699 5700 5701 5701 5702 5703 5704 5705 5706 5707 5709 5711 5713 5714 5715 5716 5716 5717 5718 5719 5720 5721 5723 5724 5725 5726 5727 5728 5729 5730 5731 5732 5733 5734 5735 5735 5736 5736
5696 5695 5693 5691 5689 5688 5686 5686 5685 5684 5684 5683 5682 5681 5680 5679 5678 5678 5678 5677 5677 5677 5677 5677 5677 5677 5677 5677 5677 5677 5676 5677 5677 5678 5679 5680 5681 5682 5683 5684 5686 5687 5689 5690 5691 5693 5694 5696 5697 5698 5699 5699 5700 5700 5701 5702 5703 5705 5706 5708 5710 5711 5711 5712 5713 5714 5715 5715 5716 5718 5719 5720 5721 5722 5723 5724 5724 5726 5727 5727 5728 5729 5729 5730 5730
5694 5693 5692 5691 5689 5687 5686 5685 5684 5684 5683 5683 5682 5681 5680 5679 5678 5678 5677 5677 5677 5677 5676 5676 5676 5676 5676 5676 5675 5675 5675 5674 5675 5675 5676 5677 5678 5679 5680 5681 5683 5684 5686 5687 5689 5691 5692 5693 5694 5695 5696 5697 5697 5697 5698 5699 5700 5701 5702 5703 5705 5706 5707 5708 5709 5710 5710 5711 5712 5713 5714 5714 5715 5716 5717 5718 5719 5720 5720 5721 5722 5722 5723 5723 5723
5693 5692 5691 5690 5688 5687 5686 5685 5684 5683 5683 5682 5682 5681 5680 5679 5678 5678 5677 5677 5677 5676 5676 5676 5676 5675 5675 5675 5674 5674 5673 5673 5673 5673 5674 5675 5675 5676 5678 5679 5680 5682 5683 5685 5687 5688 5690 5691 5692 5693 5693 5694 5694 5695 5695 5695 5696 5697 5698 5699 5700 5701 5702 5703 5704 5705 5706 5707 5707 5708 5709 5710 5710 5711 5711 5712 5713 5714 5714 5715 5715 5715 5716 5716 5716
5691 5691 5690 5689 5688 5687 5685 5684 5683 5682 5682 5682 5681 5681 5680 5679 5679 5678 5677 5677 5677 5676 5676 5676 5675 5675 5674 5674 5673 5673 5673 5672 5672 5672 5672 5673 5674 5675 5676 5677 5678 5680 5681 5683 5685 5686 5687 5688 5689 5690 5690 5691 5691 5692 5692 5693 5693 5694 5695 5695 5696 5697 5698 5699 5699 5700 5701 5702 5703 5703 5704 5704 5705 5706 5706 5707 5707 5708 5708 5708 5709 5709 5709 5709 5709
5689 5689 5689 5688 5687 5686 5685 5684 5683 5682 5681 5681 5681 5680 5680 5679 5679 5678 5677 5677 5676 5676 5675 5675 5675 5674 5674 5673 5673 5673 5672 5672 5672 5672 5672 5672 5673 5674 5675 5676 5677 5678 5680 5681 5683 5684 5685 5686 5687 5687 5688 5688 5689 5689 5690 5690 5691 5691 5692 5692 5693 5693 5694 5695 5695 5696 5697 5698 5698 5699 5699 5700 5700 5701 5701 5701 5701 5702 5702 5702 5702 5702 5702 5702 5702
5687 5687 5687 5687 5686 5685 5684 5684 5683 5682 5681 5680 5680 5680 5679 5679 5678 5678 5678 5677 5676 5676 5675 5675 5674 5674 5673 5673 5673 5672 5672 5672 5672 5672 5672 5672 5673 5673 5674 5675 5676 5677 5679 5680 5681 5682 5683 5684 5684 5685 5685 5686 5686 5687 5687 5688 5688 5689 5689 5690 5691 5691 5691 5692 5692 5693 5693 5694 5694 5695 5695 5695 5696 5696 5697 5697 5697 5697 5697 5697 5697 5697 5697 5697 5697
5685 5685 5685 5685 5685 5684 5683 5683 5682 5682 5681 5680 5679 5679 5678 5678 5678 5678 5678 5677 5677 5676 5675 5675 5674 5674 5673 5673 5672 5672 5672 5672 5672 5672 5672 5672 5673 5673 5674 5675 5676 5677 5678 5679 5680 5680 5681 5682 5682 5683 5684 5684 5685 5685 5685 5686 5687 5687 5688 5688 5689 5689 5690 5690 5690 5690 5690 5691 5691 5691 5691 5692 5692 5692 5693 5693 5693 5693 5693 5693 5693 5693 5693 5693 5692
5683 5683 5683 5683 5683 5683 5682 5682 5681 5681 5680 5680 5679 5678 5678 5678 5677 5677 5677 5677 5677 5676 5676 5675 5675 5674 5674 5673 5673 5672 5672 5672 5672 5672 5672 5672 5673 5673 5674 5675 5675 5676 5677 5678 5679 5679 5680 5681 5681 5682 5682 5683 5683 5684 5684 5685 5685 5686 5686 5686 5687 5687 5687 5687 5688 5688 5688 5688 5688 5688 5689 5689 5689 5689 5690 5690 5690 5690 5690 5690 5690 5690 5690 5690 5689
5681 5681 5681 5681 5682 5682 5681 5680 5680 5680 5680 5679 5679 5678 5677 5677 5677 5677 5677 5676 5676 5676 5675 5675 5675 5674 5674 5674 5673 5673 5673 5672 5672 5672 5672 5672 5673 5673 5674 5674 5675 5676 5676 5677 5678 5678 5679 5680 5680 5680 5681 5681 5682 5682 5683 5683 5684 5684 5684 5685 5685 5685 5685 5685 5686 5686 5686 5686 5686 5687 5687 5687 5687 5687 5687 5687 5687 5688 5688 5687 5687 5687 5687 5687 5686
5679 5679 5679 5679 5679 5680 5680 5679 5679 5679 5678 5678 5678 5677 5677 5676 5676 5676 5676 5676 5675 5675 5675 5674 5674 5674 5674 5674 5673 5673 5673 5673 5673 5673 5673 5673 5673 5673 5673 5674 5674 5675 5675 5676 5677 5677 5678 5678 5679 5679 5679 5680 5681 5681 5681 5682 5682 5683 5683 5683 5684 5684 5684 5684 5684 5685 5685 5685 5685 5685 5685 5685 5685 5685 5685 5685 5685 5685 5684 5684 5684 5684 5684 5683 5683
5676 5676 5676 5676 5677 5678 5678 5678 5677 5677 5677 5677 5677 5676 5676 5676 5676 5675 5675 5675 5675 5674 5674 5674 5674 5674 5673 5673 5673 5673 5673 5673 5673 5673 5673 5673 5673 5673 5673 5674 5674 5674 5675 5675 5675 5676 5676 5677 5677 5678 5678 5679 5679 5680 5680 5681 5681 5681 5681 5682 5682 5682 5682 5682 5683 5683 5683 5683 5683 5683 5683 5683 5683 5682 5682 5682 5682 5681 5681 5681 5681 5680 5680 5679 5679
5673 5674 5674 5674 5674 5675 5675 5676 5676 5676 5675 5675 5675 5675 5675 5675 5675 5674 5674 5674 5674 5674 5673 5673 5673 5673 5673 5672 5672 5672 5672 5672 5672 5672 5672 5672 5673 5673 5673 5673 5673 5674 5674 5674 5675 5675 5675 5676 5676 5677 5677 5678 5678 5678 5679 5679 5679 5679 5680 5680 5680 5680 5681 5681 5681 5681 5681 5681 5681 5681 5681 5681 5680 5680 5680 5679 5679 5678 5678 5677 5677 5676 5676 5675 5675
5670 5671 5671 5671 5671 5672 5673 5673 5674 5674 5674 5673 5673 5673 5674 5674 5674 5673 5673 5673 5673 5673 5673 5672 5672 5672 5672 5672 5672 5672 5672 5672 5672 5672 5672 5672 5672 5672 5672 5672 5673 5673 5673 5673 5674 5674 5674 5675 5675 5675 5676 5676 5676 5677 5677 5677 5678 5678 5678 5679 5679 5679 5679 5679 5679 5679 5679 5679 5678 5678 5678 5678 5677 5677 5677 5676 5676 5675 5675 5674 5673 5673 5672 5671 5670
5667 5668 5668 5668 5669 5669 5670 5670 5671 5671 5672 5672 5671 5671 5672 5672 5672 5672 5672 5672 5672 5672 5672 5672 5671 5671 5671 5671 5671 5671 5671 5671 5671 5671 5671 5671 5671 5672 5672 5672 5672 5672 5672 5673 5673 5673 5674 5674 5674 5674 5674 5675 5675 5675 5676 5676 5676 5676 5676 5676 5676 5676 5676 5676 5676 5676 5676 5676 5676 5676 5675 5675 5675 5674 5674 5673 5672 5672 5671 5670 5669 5669 5668 5667 5666
5664 5665 5665 5665 5665 5666 5667 5667 5668 5668 5669 5669 5669 5669 5669 5670 5670 5670 5670 5670 5670 5670 5670 5670 5670 5670 5670 5670 5670 5670 5670 5670 5670 5670 5670 5670 5670 5671 5671 5671 5671 5671 5671 5672 5672 5672 5672 5673 5673 5673 5673 5673 5674 5674 5674 5674 5674 5674 5674 5674 5674 5674 5674 5674 5674 5673 5673 5673 5673 5673 5672 5672 5671 5671 5670 5669 5669 5668 5667 5666 5665 5664 5663 5662 5661
5661 5661 5661 5662 5662 5662 5663 5664 5665 5665 5666 5667 5667 5667 5667 5667 5667 5668 5668 5668 5668 5669 5669 5669 5669 5669 5669 5669 5669 5669 5669 5669 5669 5669 5669 5669 5669 5669 5669 5670 5670 5670 5670 5670 5670 5671 5671 5671 5671 5671 5672 5672 5672 5672 5672 5672 5671 5671 5671 5671 5671 5671 5671 5671 5671 5671 5670 5670 5670 5669 5669 5668 5667 5667 5666 5665 5664 5663 5663 5662 5661 5660 5659 5658 5657
5658 5658 5658 5658 5659 5659 5659 5660 5661 5662 5662 5663 5664 5664 5665 5665 5665 5665 5665 5666 5666 5666 5667 5667 5667 5667 5667 5667 5667 5667 5667 5667 5667 5667 5667 5667 5667 5667 5668 5668 5668 5668 5669 5669 5669 5669 5669 5669 5669 5669 5669 5669 5669 5669 5669 5669 5669 5669 5669 5669 5669 5669 5669 5668 5668 5668 5667 5667 5666 5665 5665 5664 5663 5662 5662 5661 5660 5659 5658 5657 5656 5654 5653 5652 5651
5655 5655 5654 5655 5655 5656 5656 5656 5657 5658 5659 5660 5660 5661 5662 5662 5662 5663 5663 5663 5663 5664 5664 5665 5665 5665 5665 5665 5665 5665 5665 5665 5665 5665 5665 5665 5665 5666 5666 5666 5666 5666 5666 5667 5667 5667 5667 5667 5667 5667 5667 5666 5666 5666 5666 5666 5666 5666 5666 5666 5666 5666 5666 5665 5665 5664 5663 5663 5662 5661 5661 5660 5659 5658 5657 5656 5655 5654 5653 5651 5650 5649 5648 5646 5645
5652 5651 5651 5651 5651 5652 5652 5653 5653 5654 5655 5656 5657 5658 5658 5659 5659 5660 5660 5661 5661 5661 5661 5662 5662 5663 5663 5663 5663 5663 5663 5663 5663 5663 5663 5663 5663 5663 5664 5664 5664 5664 5664 5664 5664 5664 5664 5664 5664 5663 5663 5663 5663 5663 5663 5663 5663 5663 5663 5663 5662 5662 5662 5661 5661 5660 5659 5658 5658 5657 5656 5655 5654 5653 5652 5651 5649 5648 5647 5646 5644 5643 5642 5640 5639
5648 5648 5648 5648 5648 5648 5649 5649 5650 5650 5651 5652 5653 5653 5654 5655 5656 5656 5657 5657 5658 5658 5658 5659 5659 5660 5660 5661 5661 5661 5661 5661 5661 5661 5661 5660 5661 5661 5661 5661 5661 5661 5661 5661 5661 5661 5661 5661 5660 5660 5660 5659 5659 5659 5659 5659 5659 5659 5659 5659 5658 5658 5657 5657 5656 5655 5654 5653 5652 5651 5650 5649 5648 5647 5645 5644 5643 5642 5640 5639 5637 5636 5635 5633 5632
5644 5644 5644 5644 5644 5645 5645 5645 5646 5647 5647 5648 5648 5649 5650 5651 5652 5653 5653 5654 5654 5655 5655 5655 5656 5656 5657 5657 5658 5658 5658 5658 5658 5658 5658 5658 5658 5658 5658 5658 5658 5658 5658 5658 5658 5658 5657 5657 5657 5657 5656 5656 5656 5656 5656 5656 5655 5655 5654 5654 5654 5653 5653 5652 5651 5650 5649 5648 5647 5645 5644 5643 5641 5640 5638 5637 5636 5634 5633 5631 5630 5628 5626 5625 5623
5641 5640 5640 5641 5641 5641 5641 5641 5642 5643 5643 5644 5644 5645 5646 5647 5648 5649 5649 5650 5651 5651 5651 5652 5652 5653 5653 5654 5654 5654 5654 5654 5655 5655 5655 5655 5655 5655 5655 5655 5655 5654 5654 5654 5654 5654 5654 5654 5654 5654 5653 5653 5653 5652 5652 5652 5651 5650 5650 5649 5649 5648 5647 5646 5645 5644 5643 5642 5640 5639 5638 5636 5635 5633 5632 5630 5628 5627 5625 5623 5622 5620 5618 5617 5615
5637 5637 5637 5637 5637 5637 5637 5638 5638 5639 5639 5639 5640 5641 5642 5643 5644 5645 5645 5646 5647 5647 5648 5648 5649 5649 5650 5650 5650 5650 5650 5651 5651 5651 5651 5651 5651 5651 5651 5651 5651 5651 5651 5651 5651 5651 5651 5651 5650 5650 5649 5649 5649 5648 5648 5647 5646 5646 5645 5644 5643 5643 5642 5641 5640 5639 5637 5636 5634 5633 5631 5630 5628 5627 5625 5623 5622 5620 5618 5616 5614 5612 5610 5609 5607
5634 5634 5633 5633 5633 5633 5634 5634 5634 5635 5635 5635 5636 5637 5638 5639 5640 5640 5641 5642 5642 5643 5644 5644 5645 5646 5646 5647 5647 5647 5647 5647 5648 5648 5648 5648 5648 5648 5648 5648 5648 5648 5648 5648 5648 5648 5647 5647 5647 5646 5646 5645 5645 5644 5643 5643 5642 5641 5640 5639 5638 5637 5636 5635 5633 5632 5631 5629 5628 5626 5625 5623 5621 5620 5618 5616 5614 5612 5610 5608 5606 5605 5603 5601 5599
5630 5630 5630 5630 5630 5630 5630 5630 5631 5631 5631 5631 5632 5633 5634 5634 5635 5636 5637 5638 5638 5639 5640 5641 5642 5642 5642 5643 5643 5643 5643 5644 5644 5644 5644 5644 5644 5644 5644 5644 5644 5644 5644 5644 5644 5644 5643 5643 5642 5642 5641 5641 5640 5640 5639 5638 5637 5636 5635 5634 5633 5631 5630 5628 5627 5625 5624 5622 5620 5619 5617 5615 5613 5611 5610 5608 5606 5604 5602 5600 5598 5596 5594 5592 5590
5626 5627 5627 5627 5627 5627 5627 5627 5627 5627 5628 5628 5628 5629 5630 5630 5631 5632 5633 5634 5634 5635 5636 5637 5637 5638 5638 5639 5639 5639 5640 5640 5640 5641 5641 5641 5641 5640 5640 5640 5640 5640 5640 5640 5640 5639 5639 5638 5638 5637 5637 5636 5636 5635 5634 5633 5632 5631 5630 5628 5627 5625 5624 5622 5620 5619 5617 5615 5613 5611 5609 5607 5605 5603 5601 5599 5597 5596 5593 5591 5589 5587 5585 5583 5581
5622 5623 5623 5624 5624 5624 5624 5624 5624 5624 5624 5624 5624 5625 5625 5626 5627 5628 5629 5630 5630 5631 5632 5633 5633 5634 5634 5635 5635 5636 5636 5636 5637 5637 5637 5636 5636 5636 5636 5636 5636 5636 5636 5635 5635 5634 5634 5633 5633 5632 5631 5631 5630 5629 5628 5627 5626 5625 5623 5622 5620 5619 5617 5615 5614 5612 5610 5608 5606 5604 5602 5599 5597 5595 5593 5591 5589 5587 5585 5582 5580 5578 5576 5574 5572
5618 5619 5619 5620 5620 5620 5620 5620 5620 5620 5620 5620 5621 5621 5622 5623 5623 5624 5625 5626 5626 5627 5628 5628 5629 5630 5630 5631 5631 5632 5632 5633 5633 5633 5633 5633 5632 5632 5631 5631 5631 5631 5631 5630 5629 5629 5628 5627 5627 5626 5625 5624 5624 5623 5622 5621 5619 5618 5616 5615 5613 5612 5610 5609 5607 5605 5603 5601 5599 5597 5595 5592 5590 5588 5586 5583 5581 5579 5576 5574 5572 5570 5567 5565 5563
5613 5613 5614 5615 5616 5616 5616 5616 5616 5616 5616 5617 5617 5618 5618 5619 5619 5620 5621 5622 5623 5623 5624 5624 5625 5625 5626 5627 5627 5628 5628 5629 5629 5629 5628 5628 5628 5628 5628 5627 5627 5626 5626 5625 5624 5624 5623 5622 5621 5620 5619 5618 5617 5616 5615 5614 5612 5611 5610 5608 5607 5605 5604 5602 5601 5598 5596 5594 5592 5589 5587 5585 5582 5580 5578 5575 5573 5571 5568 5566 5563 5561 5559 5557 5555
5607 5607 5609 5610 5611 5612 5612 5613 5613 5613 5613 5613 5614 5614 5614 5615 5615 5616 5617 5618 5619 5619 5620 5621 5621 5622 5622 5622 5623 5623 5624 5624 5624 5624 5624 5624 5624 5623 5623 5623 5622 5621 5621 5620 5620 5619 5618 5617 5616 5615 5613 5612 5611 5609 5608 5607 5606 5604 5603 5601 5600 5598 5596 5595 5592 5590 5588 5585 5583 5581 5578 5576 5574 5571 5569 5567 5564 5562 5560 5557 5555 5553 5550 5548 5546